Temperature
16 16 16 16 16 16 16 16 16 16 16 16 16 16 16 16 16 16 16 16 16 15 15 16 16 16 15 15 15 15 15 15 15 15 15 15 15 15 15 15 14 14 15
17 16 16 16 16 16 16 16 16 16 16 16 16 16 16 16 16 16 16 15 15 15 15 15 16 15 15 15 15 15 15 15 15 15 15 15 15 15 15 15 15 14 15
16 16 16 16 16 16 16 16 16 16 16 16 16 16 16 16 16 16 16 15 15 15 15 15 15 15 15 15 15 15 15 15 15 15 14 14 14 15 15 15 14 14 14
16 16 16 16 16 16 16 16 16 16 16 16 16 16 16 16 16 15 15 15 15 15 15 15 15 15 15 15 15 15 15 15 15 14 14 14 14 14 14 14 14 14 14
15 15 16 16 16 16 16 16 16 16 16 16 16 16 16 15 15 15 15 15 15 15 15 15 15 15 15 15 15 15 15 15 15 14 14 14 14 14 14 14 14 14 14
15 15 16 15 15 15 16 16 16 16 16 16 16 15 15 15 15 15 15 15 15 15 15 15 15 15 15 15 15 15 15 15 14 14 14 14 14 14 14 14 14 14 14
15 15 15 15 15 15 15 16 16 16 16 15 15 15 15 15 15 15 15 15 15 15 15 15 15 15 15 15 15 15 15 15 14 14 13 14 14 14 14 14 14 14 14
14 14 15 15 15 15 15 15 15 15 15 15 15 15 15 15 15 15 15 15 15 15 15 15 15 15 15 15 15 15 14 14 14 13 13 13 14 14 14 14 14 14 14
14 14 14 14 14 15 15 15 15 15 15 15 15 15 15 15 15 15 15 15 15 15 15 15 15 15 15 14 14 14 14 14 13 13 13 13 14 14 14 14 14 14 14
14 14 14 14 14 14 14 15 15 15 15 15 15 15 15 14 14 14 14 14 14 14 14 14 14 14 14 14 14 14 14 14 13 13 13 13 14 14 14 14 14 14 14
13 13 14 14 14 14 14 14 14 14 14 14 14 14 14 14 14 14 14 14 14 14 14 14 14 14 14 14 14 14 14 13 13 13 13 13 13 13 14 13 13 13 13
13 13 13 13 13 14 14 14 14 14 14 14 14 14 14 14 14 14 14 14 14 14 14 14 14 14 14 13 13 14 13 13 13 13 13 13 13 13 13 13 13 13 13
13 13 13 13 13 13 13 13 13 13 13 13 13 14 14 13 13 13 13 13 13 13 13 13 13 13 13 13 13 13 13 13 13 13 13 13 13 13 13 13 13 13 13
12 12 13 13 13 13 13 13 13 13 13 13 13 13 13 13 13 13 13 13 13 13 13 13 13 13 13 13 13 13 13 13 13 13 13 13 13 13 13 13 13 13 13
12 12 12 12 12 13 13 13 13 13 13 13 13 13 13 13 13 13 13 13 13 13 13 13 13 13 13 13 12 13 13 13 13 13 13 13 13 13 12 12 13 13 13
12 12 12 12 12 12 12 12 13 12 13 13 13 13 13 13 13 13 13 13 13 12 12 12 12 12 12 12 12 12 12 12 12 12 12 13 13 12 12 12 12 12 12
11 11 12 12 12 12 12 12 12 12 12 12 12 12 12 12 12 13 12 12 12 12 12 12 12 12 12 12 12 12 12 12 12 12 12 12 12 12 12 12 12 12 12
10 11 11 11 11 11 12 12 12 12 12 12 12 12 12 12 12 12 12 12 12 12 12 12 12 12 12 12 12 12 12 12 12 12 12 12 12 12 12 12 12 12 12
10 10 11 11 11 11 11 11 11 11 11 11 11 11 12 12 12 12 12 12 12 12 11 11 11 11 11 11 11 11 11 12 12 12 12 12 12 12 12 12 12 12 11
9 10 10 10 10 10 10 10 11 11 11 11 11 11 11 11 11 11 11 11 11 11 11 11 11 11 11 11 11 11 11 11 11 11 11 11 11 11 11 11 11 11 11
9 9 9 10 10 10 10 10 10 10 11 11 11 11 11 11 11 11 11 11 11 11 11 11 11 11 11 11 10 10 11 11 11 11 11 11 11 11 11 11 11 11 11
8 9 9 9 9 9 9 10 10 10 10 10 10 10 10 11 11 11 11 11 11 11 11 10 10 10 10 10 10 10 10 10 10 10 10 11 11 11 11 11 11 11 10
8 8 8 8 9 9 9 9 9 9 10 10 10 10 10 10 10 11 10 10 11 11 10 10 10 10 10 10 10 10 10 10 10 10 10 10 10 10 10 10 10 10 10
7 7 8 8 8 8 9 9 9 9 9 9 9 10 10 10 10 10 10 10 10 10 10 10 10 10 10 10 10 10 10 10 9 9 9 9 9 10 10 10 10 10 10
6 7 7 8 8 8 8 8 8 9 9 9 9 9 9 9 10 10 10 10 10 10 10 10 10 10 10 10 10 10 10 10 10 9 9 9 9 9 9 9 9 9 9
6 6 7 7 7 8 8 8 8 8 8 9 9 9 9 9 9 9 9 9 9 10 9 9 9 9 9 9 9 9 9 9 9 9 9 8 9 9 9 9 9 9 9
Wind_Speed
11 14 15 15 15 15 16 15 16 16 16 16 16 16 16 15 15 15 15 15 15 15 16 16 17 17 17 17 17 17 17 17 18 18 18 18 17 17 16 14 14 17 17
14 16 16 15 16 16 16 16 16 16 16 16 16 16 16 15 15 15 15 15 15 16 16 16 16 17 17 17 17 17 17 17 16 15 16 17 17 16 16 16 16 16 17
15 16 17 16 16 16 16 16 16 15 15 15 15 15 15 15 15 15 15 15 15 15 16 16 16 16 16 16 16 16 16 16 14 11 11 14 16 16 16 17 17 17 17
15 16 17 17 16 16 16 16 16 15 15 15 15 14 15 15 15 15 14 15 15 15 16 16 16 16 15 15 15 15 15 14 11 7 11 13 14 16 16 16 16 16 16
14 15 16 17 16 16 16 16 15 15 14 14 14 14 14 14 14 14 14 14 15 15 15 15 15 15 15 15 15 14 13 11 8 9 12 12 13 15 15 15 15 16 16
14 15 17 16 16 16 15 15 15 15 14 14 14 14 14 14 14 14 14 14 14 15 15 14 14 14 14 14 14 13 12 8 8 11 11 12 13 14 15 15 15 15 15
13 14 17 16 16 15 15 14 15 14 14 14 14 14 14 14 14 14 14 14 14 14 14 14 14 14 14 13 13 12 10 7 9 10 10 11 13 14 15 15 15 15 14
13 13 15 16 15 15 15 14 14 13 13 13 13 13 14 14 14 14 14 13 13 13 13 14 14 13 13 13 12 11 9 6 9 9 10 12 13 14 14 14 14 14 14
12 12 13 14 15 14 14 14 13 13 13 13 13 13 13 14 14 13 13 12 13 13 13 13 13 13 12 12 11 11 9 5 8 9 9 10 12 13 13 13 13 13 13
10 10 11 12 13 13 13 13 12 12 12 12 13 13 14 14 14 13 13 12 12 12 12 12 12 13 12 12 11 10 8 5 8 9 8 10 11 12 12 12 12 12 12
9 9 10 10 11 11 11 12 12 12 11 12 12 14 14 12 12 11 11 12 12 12 12 12 12 12 12 11 10 9 6 6 7 7 8 10 10 10 10 10 10 11 10
10 9 8 9 9 10 10 10 10 9 10 9 10 12 10 10 9 10 13 12 13 12 12 11 11 11 9 8 9 7 5 6 6 7 8 9 8 9 9 9 9 9 9
10 9 8 8 9 9 7 8 7 7 8 8 9 10 9 9 9 10 9 10 10 10 9 9 9 7 6 6 6 6 5 5 6 6 8 8 7 7 8 8 7 8 8
9 9 8 8 7 8 8 7 7 7 7 7 8 9 9 7 8 8 7 8 8 7 7 6 6 6 6 6 6 6 6 5 5 5 7 7 6 6 6 7 7 7 7
9 8 8 7 8 7 7 6 6 6 7 7 7 8 8 7 7 8 7 7 7 6 6 6 6 6 6 5 5 5 5 6 6 5 6 7 6 6 6 6 6 7 7
8 8 7 8 8 8 7 6 6 6 7 7 7 7 8 7 7 7 7 6 6 6 6 6 6 6 5 4 4 4 5 5 5 5 5 6 6 5 5 6 6 6 6
8 8 7 7 7 8 8 7 6 6 7 6 7 8 8 7 8 7 7 6 6 7 7 6 6 5 4 4 4 3 3 4 4 5 4 4 5 6 5 5 5 5 5
7 7 7 6 7 7 7 7 6 7 7 6 6 7 8 8 8 7 6 6 7 7 7 6 5 4 4 3 3 2 3 3 4 4 4 4 4 4 5 5 5 5 4
7 7 7 6 6 7 7 6 6 6 6 6 6 6 7 8 8 7 6 6 8 6 6 6 5 4 4 3 3 2 2 3 3 3 4 4 4 3 4 5 5 5 5
6 6 7 6 6 5 5 5 5 5 4 5 6 6 7 7 8 7 6 7 7 6 5 5 6 5 4 4 3 3 3 2 3 3 3 3 4 3 3 4 4 5 6
5 6 6 6 6 5 5 5 5 5 4 4 5 6 7 7 8 7 6 7 6 5 6 7 6 6 4 3 3 2 2 2 2 2 2 2 3 3 3 3 3 3 3
6 6 6 6 6 6 5 5 5 5 5 4 4 6 7 7 8 8 7 6 6 5 6 6 6 5 3 3 3 3 2 2 1 1 1 1 2 2 2 2 2 2 2
6 7 6 7 7 6 6 5 5 4 4 4 4 5 6 8 8 8 8 7 6 6 6 6 7 6 5 4 3 2 2 3 2 1 1 1 1 1 1 1 2 2 1
5 5 6 7 7 7 7 7 8 7 6 5 6 5 6 7 8 8 8 7 7 6 6 6 6 5 6 5 3 1 1 1 2 2 2 1 1 1 0 0 1 1 1
4 4 5 7 7 7 7 8 8 7 6 5 6 6 6 6 7 7 8 7 7 6 6 6 6 6 5 5 4 3 2 1 2 2 2 2 1 1 1 1 0 0 1
2 3 4 6 7 7 8 8 8 8 8 7 7 6 5 4 5 6 7 7 7 6 6 6 6 6 6 6 5 4 4 3 3 3 3 3 2 1 1 1 1 1 1
Wind_Direction
162 158 153 153 146 142 139 135 134 135 135 133 131 130 128 126 123 120 118 115 113 110 107 105 102 100 98 95 92 89 85 84 84 83 82 81 81 80 78 76 80 79 77
156 157 153 153 148 144 141 137 133 132 134 135 134 133 130 129 128 124 122 118 115 111 109 107 104 101 99 97 95 92 88 87 86 87 90 87 82 81 78 72 70 80 79
152 154 155 154 149 145 142 138 134 134 134 134 135 135 132 130 129 126 122 120 117 113 110 108 106 103 101 99 97 94 91 89 88 92 100 93 87 84 82 80 80 81 79
152 154 156 149 149 146 143 139 137 135 134 133 133 135 135 132 130 127 122 119 117 114 111 109 106 105 104 102 101 97 93 90 86 94 90 89 89 87 84 82 81 81 79
152 154 150 148 148 146 144 142 140 138 135 134 134 134 133 134 132 129 125 121 118 115 112 110 109 108 107 105 104 101 96 92 91 89 88 88 87 87 86 83 82 82 80
152 152 149 150 147 145 144 145 144 141 139 136 135 134 133 131 131 129 127 124 120 118 116 114 112 111 110 108 107 104 99 99 104 91 91 89 88 89 88 85 84 83 80
151 149 149 147 145 146 145 144 145 145 142 139 138 136 134 132 129 126 125 124 124 123 120 118 117 116 114 112 109 105 99 93 95 95 91 88 88 92 90 87 83 81 80
149 147 147 144 141 142 144 143 141 145 143 141 140 139 136 132 129 127 126 124 125 127 125 122 120 119 117 113 111 105 98 99 101 96 93 89 90 92 90 87 85 82 80
149 148 148 149 145 140 139 139 140 139 139 138 139 138 136 132 131 130 129 128 127 125 124 125 125 121 118 115 112 107 101 92 101 98 95 92 92 91 89 87 86 84 80
150 152 152 153 153 151 146 138 137 135 133 135 135 132 133 133 132 131 132 129 126 125 123 122 125 123 119 116 115 113 115 119 101 100 97 95 94 93 92 88 86 85 82
155 158 158 156 156 153 150 145 143 139 136 136 137 134 140 144 140 139 131 127 127 124 123 123 123 124 123 119 118 122 130 115 108 99 96 94 97 96 94 90 86 85 86
167 168 164 160 156 154 152 153 154 152 151 153 153 153 153 148 142 136 125 124 125 123 121 123 126 133 139 132 130 139 124 116 108 105 98 98 99 98 97 95 92 89 87
172 169 165 162 158 155 154 157 157 157 157 160 159 158 154 146 142 141 140 134 132 134 133 135 142 139 135 133 136 132 122 113 107 107 104 102 103 102 99 100 99 97 92
173 173 168 165 161 159 156 157 159 159 160 160 161 163 159 153 153 149 149 148 149 149 144 145 143 139 134 133 133 130 127 121 117 111 103 104 104 105 104 101 102 101 96
175 175 172 169 167 162 156 157 161 162 165 162 161 166 163 159 156 153 151 150 151 151 151 146 142 138 135 133 128 127 124 122 121 117 110 106 103 102 104 102 100 101 98
179 178 176 175 169 166 163 162 163 164 163 162 163 166 163 159 157 155 152 153 152 154 149 146 143 140 134 132 129 126 124 123 120 118 114 113 107 98 100 102 96 96 97
183 177 176 174 172 172 169 167 165 165 165 164 164 168 167 163 163 160 158 158 157 155 150 142 139 136 129 126 123 119 121 121 117 116 115 115 114 105 98 96 89 86 87
185 179 174 171 173 174 171 170 165 167 167 165 166 170 171 168 166 163 161 162 159 157 154 151 149 143 140 135 127 114 110 110 110 110 113 111 109 107 100 94 82 80 75
187 180 172 167 171 172 168 165 163 161 161 161 163 168 172 170 168 165 163 161 161 159 159 156 154 150 145 133 118 104 92 94 98 107 104 99 95 99 104 100 95 83 73
187 178 173 164 161 163 161 158 152 150 152 155 161 166 167 168 170 167 161 159 161 160 161 162 152 147 142 135 119 93 71 76 73 82 96 101 97 94 95 99 102 91 78
182 176 173 167 163 163 164 169 171 171 166 164 161 163 168 169 170 167 163 161 166 169 169 164 154 151 149 147 139 116 91 78 73 64 70 93 95 93 87 90 95 99 94
191 184 177 177 173 172 175 175 178 173 172 169 160 168 170 171 170 170 169 167 170 167 165 168 164 162 157 172 180 170 169 162 106 56 70 98 104 103 95 84 82 81 91
199 194 188 182 177 176 171 163 154 156 157 165 174 178 179 177 174 172 174 170 171 172 174 179 181 178 173 177 197 205 197 200 165 145 117 105 101 104 102 92 72 57 53
210 197 193 184 178 178 174 172 169 173 176 184 182 181 177 176 176 176 175 174 174 178 181 184 189 189 184 183 187 224 272 190 190 178 171 148 104 71 31 87 91 60 42
213 196 192 185 180 177 178 179 179 178 179 176 173 173 172 173 178 178 179 177 179 183 186 187 187 192 194 195 189 188 192 191 216 215 208 200 197 201 270 295 324 18 9
225 203 190 185 182 180 183 185 185 182 177 171 173 174 173 172 177 180 180 182 182 184 189 191 195 197 199 200 197 194 197 201 203 212 221 220 225 226 252 272 280 304 333
Height
1522 1525 1527 1530 1533 1535 1537 1539 1540 1542 1543 1544 1545 1546 1547 1548 1549 1550 1551 1551 1552 1553 1553 1554 1554 1554 1555 1555 1555 1555 1555 1555 1555 1555 1555 1555 1555 1555 1555 1555 1555 1554 1554
1521 1524 1527 1530 1533 1535 1537 1539 1541 1542 1544 1545 1546 1548 1549 1549 1550 1551 1552 1553 1554 1554 1555 1555 1556 1556 1557 1557 1557 1557 1557 1557 1557 1557 1558 1558 1558 1558 1558 1557 1557 1557 1556
1520 1524 1527 1530 1533 1536 1538 1540 1541 1543 1545 1546 1547 1548 1550 1551 1552 1553 1554 1554 1555 1556 1556 1557 1558 1558 1558 1559 1559 1559 1559 1559 1560 1560 1561 1561 1560 1560 1560 1560 1559 1559 1559
1521 1524 1527 1530 1533 1536 1538 1540 1542 1544 1545 1547 1548 1549 1551 1552 1553 1554 1555 1556 1556 1557 1558 1559 1559 1560 1560 1560 1561 1561 1561 1562 1562 1562 1564 1564 1563 1563 1563 1562 1562 1562 1561
1522 1525 1527 1530 1533 1536 1538 1540 1542 1544 1546 1547 1549 1550 1551 1553 1554 1555 1556 1557 1558 1558 1559 1560 1561 1561 1562 1562 1563 1563 1563 1564 1564 1565 1565 1565 1565 1565 1565 1565 1564 1564 1564
1522 1525 1527 1531 1533 1536 1538 1540 1542 1544 1546 1548 1549 1551 1552 1553 1555 1556 1557 1558 1559 1560 1561 1561 1562 1563 1563 1564 1564 1565 1565 1566 1567 1567 1567 1568 1567 1567 1567 1567 1566 1566 1566
1522 1525 1528 1531 1534 1536 1538 1540 1543 1545 1546 1548 1550 1551 1552 1554 1555 1556 1558 1559 1560 1561 1562 1562 1563 1564 1564 1565 1566 1566 1567 1567 1569 1569 1569 1570 1569 1569 1569 1569 1569 1568 1568
1522 1525 1528 1531 1534 1536 1539 1541 1543 1545 1546 1548 1550 1551 1553 1554 1556 1557 1558 1559 1561 1562 1563 1563 1564 1565 1566 1566 1567 1568 1568 1569 1570 1571 1571 1571 1571 1571 1571 1571 1571 1570 1570
1523 1526 1528 1531 1534 1536 1539 1541 1543 1545 1546 1548 1550 1552 1553 1555 1556 1557 1559 1560 1561 1562 1563 1564 1565 1566 1567 1567 1568 1569 1570 1570 1572 1572 1572 1573 1573 1573 1573 1573 1572 1572 1572
1523 1525 1528 1531 1533 1536 1538 1540 1542 1544 1546 1548 1550 1552 1553 1555 1556 1558 1559 1561 1562 1563 1564 1565 1566 1567 1568 1569 1569 1570 1571 1572 1573 1573 1574 1574 1574 1574 1574 1574 1574 1573 1573
1522 1525 1527 1530 1532 1535 1537 1540 1542 1544 1546 1548 1549 1551 1553 1555 1556 1558 1559 1561 1562 1564 1565 1566 1567 1568 1569 1570 1570 1571 1572 1573 1574 1574 1574 1575 1575 1575 1575 1575 1575 1575 1575
1520 1523 1526 1529 1531 1534 1536 1539 1541 1543 1545 1547 1549 1551 1553 1554 1556 1557 1559 1561 1562 1564 1565 1567 1568 1569 1570 1571 1571 1572 1573 1574 1575 1575 1575 1576 1576 1576 1576 1576 1576 1576 1576
1518 1521 1524 1527 1530 1532 1535 1537 1540 1542 1544 1546 1548 1550 1551 1553 1555 1557 1559 1560 1562 1564 1566 1567 1568 1569 1571 1571 1572 1573 1574 1575 1575 1576 1576 1576 1577 1577 1577 1577 1577 1577 1577
1517 1519 1522 1525 1528 1530 1533 1536 1538 1540 1542 1544 1546 1548 1550 1552 1554 1556 1558 1560 1562 1563 1565 1567 1568 1569 1571 1572 1573 1573 1574 1575 1576 1576 1577 1577 1578 1578 1578 1578 1578 1578 1578
1515 1517 1520 1523 1526 1529 1531 1534 1536 1538 1541 1543 1544 1547 1549 1551 1553 1555 1557 1559 1561 1563 1565 1566 1568 1569 1570 1571 1572 1573 1574 1575 1576 1577 1577 1578 1578 1579 1579 1579 1579 1579 1579
1513 1516 1518 1521 1524 1527 1529 1532 1534 1537 1539 1541 1543 1545 1547 1550 1551 1553 1555 1557 1560 1562 1564 1565 1567 1568 1570 1571 1572 1573 1575 1576 1576 1577 1577 1578 1578 1579 1579 1579 1580 1580 1580
1511 1514 1516 1519 1522 1524 1527 1530 1532 1535 1537 1539 1541 1543 1546 1548 1550 1552 1554 1556 1558 1560 1562 1564 1566 1568 1569 1570 1572 1573 1574 1575 1576 1577 1577 1578 1579 1579 1579 1580 1580 1580 1580
1509 1512 1514 1517 1519 1522 1525 1528 1530 1533 1535 1537 1540 1542 1544 1546 1548 1550 1553 1555 1556 1559 1561 1563 1565 1567 1568 1570 1571 1572 1573 1574 1576 1576 1577 1578 1578 1579 1579 1579 1580 1580 1580
1507 1509 1511 1514 1517 1520 1523 1525 1528 1531 1533 1535 1538 1540 1542 1544 1547 1549 1551 1553 1555 1557 1559 1561 1564 1565 1567 1569 1570 1572 1573 1574 1575 1576 1576 1577 1578 1578 1579 1579 1579 1579 1579
1505 1507 1509 1512 1514 1517 1520 1523 1525 1528 1530 1533 1535 1538 1540 1542 1545 1547 1549 1551 1554 1556 1558 1560 1562 1564 1566 1568 1569 1571 1572 1573 1574 1574 1575 1576 1577 1577 1578 1578 1578 1578 1578
1502 1504 1506 1509 1511 1514 1517 1519 1522 1525 1527 1530 1533 1536 1538 1540 1543 1545 1547 1549 1552 1554 1556 1558 1560 1562 1564 1566 1568 1570 1571 1572 1572 1573 1574 1575 1575 1576 1576 1577 1577 1577 1577
1499 1501 1503 1506 1509 1512 1514 1517 1520 1522 1525 1528 1531 1533 1536 1538 1541 1543 1546 1547 1550 1552 1554 1556 1558 1560 1562 1565 1567 1569 1570 1572 1571 1572 1572 1573 1574 1574 1575 1575 1575 1576 1576
1496 1498 1501 1504 1506 1509 1512 1515 1517 1520 1523 1525 1528 1531 1533 1536 1538 1541 1543 1545 1548 1550 1552 1554 1556 1558 1560 1563 1565 1567 1569 1569 1570 1570 1570 1571 1572 1573 1573 1573 1574 1574 1574
1493 1496 1499 1501 1503 1507 1510 1512 1514 1516 1519 1521 1525 1528 1531 1533 1536 1538 1541 1543 1546 1548 1550 1552 1554 1556 1558 1560 1562 1564 1566 1566 1568 1568 1569 1569 1570 1571 1571 1572 1572 1572 1572
1492 1494 1496 1499 1501 1504 1506 1509 1512 1515 1517 1520 1522 1525 1528 1530 1533 1535 1538 1541 1543 1545 1547 1550 1552 1554 1556 1557 1559 1561 1562 1563 1565 1566 1567 1568 1568 1569 1569 1569 1570 1570 1570
1489 1491 1493 1496 1498 1501 1504 1507 1510 1512 1514 1517 1520 1522 1525 1527 1530 1532 1535 1538 1540 1542 1545 1547 1549 1551 1553 1555 1556 1558 1559 1561 1562 1563 1564 1565 1566 1566 1567 1567 1567 1568 1568